[[[{"header":{"parameterUnit":"kt","parameterCategory":2,"dx":1,"dy":1,"la1":30.253999710083008,"la2":30.299108505249023,"lo1":-89.0895004272461,"lo2":-89.04439544677734,"nx":28,"ny":28,"refTime":"2022-11-01T21:00:00:Z","depth":0,"parameterNumber":1,"parameterNumberName":"U-component_of_WINDS"},"data":[0.097,0.1058,0.1075,0.1184,0.1219,0.1296,0.1329,0.1374,0.1415,0.151,0.1568,0.1595,0.1643,0.1717,0.178,0.1791,0.1816,0.1835,0.1844,0.1747,0.1734,0.1723,0.1702,0.184,0.184,0.1941,0.1942,0.1943,0.0896,0.0931,0.0994,0.1066,0.112,0.1113,0.1171,0.1217,0.1286,0.1338,0.1396,0.1481,0.1551,0.1594,0.1664,0.1706,0.1706,0.1723,0.172,0.1727,0.1624,0.1602,0.1722,0.1722,0.1722,0.1722,0.1722,0.1722,0.0766,0.0819,0.0872,0.0941,0.0983,0.1032,0.1085,0.1117,0.1179,0.1254,0.1264,0.1344,0.1398,0.1492,0.1528,0.1591,0.1575,0.1599,0.1605,0.161,0.1613,0.1463,0.1604,0.1604,0.1604,0.1603,0.1603,0,0.0676,0.0687,0.0748,0.0815,0.0866,0.092,0.0973,0.1006,0.1036,0.1087,0.1161,0.1207,0.1298,0.137,0.144,0.1473,0.1471,0.1474,0.149,0.1485,0.1471,0.1478,0.1308,0.1469,0.1468,0.1467,0.1466,0.1466,0.0544,0.0604,0.0669,0.071,0.0743,0.0809,0.0852,0.0874,0.0919,0.0987,0.1033,0.1106,0.1165,0.1282,0.1319,0.1388,0.1387,0.1446,0.1397,0.139,0.1386,0.1381,0.1387,0.1455,0.1456,0.1457,0.1458,0,0.0468,0.0496,0.0595,0.0654,0.067,0.0732,0.0783,0.0837,0.0862,0.094,0.0959,0.0999,0.1072,0.11,0.119,0.1202,0.1304,0.1303,0.1285,0.1285,0.134,0.1334,0.1516,0.154,0.1399,0.14,0.1401,0,0.0366,0.0444,0.0481,0.0537,0.0624,0.0644,0.073,0.076,0.0807,0.0869,0.0871,0.0928,0.0955,0.1017,0.1036,0.1124,0.1142,0.1156,0.1159,0.1155,0.1153,0.1178,0.117,0.1167,0.1166,0.1166,0.1165,0,0.0242,0.0355,0.0445,0.0475,0.0546,0.0588,0.062,0.0673,0.0715,0.0775,0.0803,0.0871,0.0909,0.0962,0.0984,0.095,0.1094,0.1051,0.1108,0.1107,0.1137,0.1135,0.129,0.1164,0.1163,0.1163,0.1163,0,0.0164,0.0223,0.0351,0.0409,0.0438,0.0498,0.0566,0.0624,0.068,0.0695,0.0742,0.0747,0.0827,0.0782,0.0893,0.0842,0.0879,0.09,0.0905,0.0912,0.0861,0.0943,0.1089,0.1105,0.0921,0.0919,0.0917,0,0.0014,0.015,0.0167,0.0289,0.0355,0.0351,0.0419,0.0469,0.0494,0.0555,0.0584,0.0653,0.0626,0.0651,0.0703,0.0735,0.0803,0.0727,0.0814,0.0817,0.0797,0.0933,0.0947,0.1054,0.0892,0.0894,0.0896,0,-0.01,-0.0015,0.0006,0.004,0.0109,0.0165,0.0243,0.0316,0.0355,0.0411,0.0476,0.0576,0.0559,0.0601,0.0612,0.0664,0.0758,0.0639,0.0641,0.0658,0.0882,0.0894,0.0912,0.0754,0.0757,0.0759,0.0876,0,-0.0228,-0.0156,-0.0099,-0.0022,0.0026,0.0104,0.0133,0.0179,0.0184,0.0209,0.0307,0.0356,0.0431,0.0459,0.0465,0.0576,0.0561,0.0543,0.05,0.059,0.0629,0.0645,0.044,0.0438,0.0438,0.0437,0,0,-0.0379,-0.0276,-0.0259,-0.0183,-0.0142,-0.0147,-0.0067,-0.0027,0.0054,0.0083,0.0059,0.0206,0.0247,0.0363,0.0393,0.0424,0.0446,0.0414,0.0547,0.0559,0.0571,0.0612,0.0628,0.0435,0.0435,0.0435,0.0434,0,-0.0421,-0.038,-0.0301,-0.0259,-0.0197,-0.0174,-0.0155,-0.0094,-0.0074,0.0022,0.0016,0.0079,0.0196,0.0239,0.0277,0.0401,0.0393,0.0422,0.0478,0.0537,0.055,0.0562,0.0606,0.0621,0.0432,0.0432,0.0432,0,-0.0528,-0.0484,-0.0443,-0.0349,-0.0308,-0.0239,-0.0277,-0.0201,-0.015,-0.0158,-0.0063,-0.0032,0.0029,0.0135,0.0184,0.0164,0.0343,0.0293,0.0299,0.0305,0.0364,0.038,0.0394,0.0205,0.0204,0.0204,0,0,-0.0568,-0.0501,-0.0447,-0.0356,-0.033,-0.0295,-0.0255,-0.0246,-0.0192,-0.017,-0.013,-0.0077,-0.0009,0.0036,0.0102,0.0214,0.0228,0.0263,0.0274,0.0283,0.0293,0.0354,0.037,0.02,0.02,0.02,0,0,-0.0587,-0.0521,-0.0526,-0.0418,-0.0366,-0.0306,-0.0252,-0.0256,-0.0194,-0.02,-0.0181,-0.0166,-0.0066,-0.0035,-0.0084,0.0087,0.0045,0.0057,0.0063,0.0077,0.0087,0.0077,-0.0116,0,0,0,0,0,-0.0616,-0.053,-0.0535,-0.0513,-0.0394,-0.0303,-0.0288,-0.0271,-0.0302,-0.0259,-0.0226,-0.0237,-0.0058,-0.0101,-0.0079,-0.0024,0.0156,0.0163,0.0171,0.0205,0.0219,0.0231,0,0,0,0,0,0,-0.0607,-0.0579,-0.0537,-0.0474,-0.0447,-0.0306,-0.0355,-0.0348,-0.0306,-0.0309,-0.0243,-0.0235,-0.0218,-0.0112,-0.0092,-0.004,-0.0123,0.0159,0.0165,0.0171,0.021,0.0221,0.0231,0,0,0,0,0,-0.06,-0.0578,-0.0392,-0.0475,-0.0452,-0.0408,-0.0358,-0.0352,-0.032,-0.0269,-0.0262,-0.031,-0.0217,-0.0199,-0.01,-0.0049,-0.0136,-0.0129,0.0163,0.0168,0.0173,0.0215,0,0,0,0,0,0,-0.0594,-0.0571,-0.0387,-0.0379,-0.0507,-0.0416,-0.0401,-0.0357,-0.0282,-0.0273,-0.0336,-0.034,-0.0215,-0.0201,-0.0187,-0.0054,-0.0148,-0.014,-0.0135,0.0167,0.0171,0.0175,0,0,0,0,0,0,-0.0583,-0.0565,-0.0383,-0.0423,-0.042,-0.0423,-0.041,-0.0323,-0.0281,-0.0353,-0.0354,-0.0339,-0.0236,-0.0203,-0.0192,-0.0057,-0.0156,-0.0149,-0.0144,-0.0141,0.017,0.0174,0,0,0,0,0,0,-0.0575,-0.0559,-0.0425,-0.0423,-0.042,-0.0331,-0.0346,-0.0225,-0.0317,-0.0356,-0.0324,-0.0328,-0.0236,-0.0225,-0.0195,-0.0064,-0.0059,-0.0156,-0.0151,-0.0147,-0.0145,0,0,0,0,0,0,0,-0.0569,-0.0679,-0.0433,-0.0422,-0.042,-0.0307,-0.0305,-0.0303,-0.0317,-0.032,-0.0323,-0.0326,-0.0197,-0.0189,-0.0181,-0.007,0,0,-0.0157,-0.0153,0,0,0,0,0,0,0,0,-0.0685,-0.068,-0.0433,-0.0431,-0.0429,-0.0307,-0.0305,-0.0303,-0.0318,-0.032,-0.0323,-0.0325,-0.0195,-0.0189,-0.0182,0,0,0,0,0,0,0,0,0,0,0,0,0,0,0,-0.0432,-0.0431,0,-0.0306,-0.0305,-0.0303,-0.0318,-0.032,-0.0322,-0.0324,-0.0193,-0.0188,-0.0183,0,0,0,0,0,0,0,0,0,0,0,0,0,0,0,0,0,0,0,0,0,0,0,0,0,0,0,0,0,0,0,0,0,0,0,0,0,0,0,0,0,0,0,0,0,0,0,0,0,0,0,0,0,0,0,0,0,0,0,0,0,0,0,0,0,0,0,0,0]}],[{"header":{"parameterUnit":"kt","parameterCategory":2,"dx":1,"dy":1,"la1":30.253999710083008,"la2":30.299108505249023,"lo1":-89.0895004272461,"lo2":-89.04439544677734,"nx":28,"ny":28,"refTime":"2022-11-01T21:00:00:Z","depth":0,"parameterNumber":2,"parameterNumberName":"V-component_of_WINDS"},"data":[-0.2158,-0.2191,-0.2251,-0.2317,-0.2382,-0.2438,-0.2477,-0.2534,-0.2595,-0.2669,-0.2722,-0.2787,-0.2873,-0.2952,-0.3014,-0.3042,-0.3065,-0.3033,-0.3072,-0.3161,-0.3177,-0.3193,-0.319,-0.3036,-0.3036,-0.2973,-0.2972,-0.2972,-0.222,-0.2284,-0.2336,-0.2427,-0.2473,-0.254,-0.2619,-0.2653,-0.27,-0.2775,-0.2831,-0.2901,-0.2964,-0.3064,-0.3136,-0.3154,-0.3192,-0.317,-0.3171,-0.3184,-0.3281,-0.3277,-0.3138,-0.3138,-0.3138,-0.3138,-0.3138,-0.3138,-0.2348,-0.2364,-0.2456,-0.2513,-0.2575,-0.2636,-0.2663,-0.2742,-0.2794,-0.2875,-0.2937,-0.2993,-0.3081,-0.3198,-0.3252,-0.3298,-0.3334,-0.333,-0.333,-0.3328,-0.3319,-0.3406,-0.3313,-0.3314,-0.3314,-0.3315,-0.3315,0,-0.2462,-0.2512,-0.2566,-0.2637,-0.2683,-0.2744,-0.2811,-0.2829,-0.2956,-0.2993,-0.3053,-0.3098,-0.3187,-0.3251,-0.3332,-0.3391,-0.3468,-0.3481,-0.348,-0.3452,-0.3417,-0.344,-0.3597,-0.3484,-0.3486,-0.3487,-0.3488,-0.3489,-0.26,-0.2611,-0.2735,-0.2765,-0.2817,-0.2862,-0.2902,-0.3014,-0.3051,-0.315,-0.316,-0.3225,-0.3283,-0.3369,-0.3463,-0.353,-0.3569,-0.352,-0.358,-0.3552,-0.3573,-0.3573,-0.3576,-0.3507,-0.3505,-0.3503,-0.3501,0,-0.2672,-0.2772,-0.2809,-0.2932,-0.2963,-0.2969,-0.3075,-0.3096,-0.3171,-0.3211,-0.3227,-0.3345,-0.3402,-0.3506,-0.3591,-0.3644,-0.3659,-0.3693,-0.363,-0.3644,-0.3613,-0.3616,-0.3488,-0.3479,-0.3636,-0.3634,-0.3633,0,-0.2831,-0.284,-0.299,-0.3006,-0.3021,-0.3134,-0.3146,-0.3213,-0.329,-0.3323,-0.3425,-0.3453,-0.3581,-0.3625,-0.3702,-0.3732,-0.3747,-0.3791,-0.3812,-0.3784,-0.3779,-0.3809,-0.3818,-0.3855,-0.3855,-0.3856,-0.3856,0,-0.2936,-0.3027,-0.3053,-0.309,-0.3223,-0.3232,-0.3288,-0.3376,-0.3414,-0.348,-0.3506,-0.3574,-0.3612,-0.3664,-0.3763,-0.38,-0.3801,-0.3873,-0.3846,-0.3844,-0.3844,-0.3843,-0.3701,-0.3857,-0.3857,-0.3857,-0.3858,0,-0.3082,-0.3145,-0.3167,-0.3281,-0.3301,-0.3317,-0.3393,-0.3431,-0.3516,-0.3566,-0.3619,-0.3701,-0.3733,-0.3798,-0.3845,-0.3866,-0.3898,-0.3942,-0.3942,-0.3955,-0.4025,-0.3935,-0.3786,-0.3777,-0.3962,-0.3963,-0.3964,0,-0.3177,-0.3225,-0.3324,-0.3341,-0.3379,-0.3495,-0.3515,-0.3587,-0.3656,-0.3699,-0.3775,-0.3822,-0.3891,-0.3921,-0.393,-0.4012,-0.3984,-0.4018,-0.4082,-0.4083,-0.4059,-0.3923,-0.3877,-0.3807,-0.3976,-0.3975,-0.3974,0,-0.3264,-0.3425,-0.3421,-0.347,-0.3583,-0.3615,-0.3637,-0.3709,-0.3732,-0.38,-0.3825,-0.3891,-0.3948,-0.3995,-0.4069,-0.4073,-0.4007,-0.4134,-0.4138,-0.411,-0.399,-0.3946,-0.3934,-0.4056,-0.4054,-0.4053,-0.3983,0,-0.3467,-0.3504,-0.3497,-0.3598,-0.3638,-0.3654,-0.3765,-0.3793,-0.3861,-0.3934,-0.3969,-0.4055,-0.4128,-0.414,-0.4206,-0.4182,-0.4203,-0.4262,-0.4336,-0.4244,-0.4224,-0.4215,-0.4356,-0.4359,-0.4361,-0.4363,0,0,-0.3536,-0.3591,-0.3698,-0.3725,-0.3766,-0.3887,-0.3894,-0.3948,-0.4053,-0.4079,-0.412,-0.4227,-0.4295,-0.4326,-0.4306,-0.4334,-0.4341,-0.4369,-0.4286,-0.4276,-0.4268,-0.4245,-0.4234,-0.4368,-0.4368,-0.4369,-0.437,0,-0.3634,-0.3699,-0.3705,-0.3766,-0.386,-0.3937,-0.3938,-0.4052,-0.41,-0.4134,-0.4234,-0.4268,-0.4349,-0.441,-0.4451,-0.4367,-0.4442,-0.438,-0.43,-0.4305,-0.4293,-0.4282,-0.4256,-0.4245,-0.4376,-0.4375,-0.4375,0,-0.3743,-0.3827,-0.3841,-0.3939,-0.4001,-0.4036,-0.414,-0.417,-0.4198,-0.4329,-0.4361,-0.4424,-0.4513,-0.4526,-0.4536,-0.4575,-0.4527,-0.4561,-0.4549,-0.4553,-0.4565,-0.455,-0.4536,-0.4713,-0.4713,-0.4714,0,0,-0.3813,-0.3847,-0.3973,-0.3968,-0.4001,-0.4116,-0.4145,-0.4216,-0.4294,-0.4324,-0.4407,-0.4479,-0.4528,-0.4558,-0.4609,-0.4607,-0.4637,-0.4597,-0.4582,-0.4568,-0.4565,-0.4573,-0.4558,-0.4717,-0.4717,-0.4717,0,0,-0.3847,-0.3993,-0.4049,-0.4057,-0.4126,-0.4251,-0.4244,-0.4315,-0.4373,-0.4384,-0.4506,-0.4531,-0.4545,-0.4603,-0.4626,-0.4638,-0.4708,-0.4704,-0.46,-0.4582,-0.4566,-0.4554,-0.4746,0,0,0,0,0,-0.4005,-0.3975,-0.4024,-0.4042,-0.4166,-0.4223,-0.424,-0.4341,-0.4389,-0.4381,-0.4462,-0.454,-0.4641,-0.4665,-0.4681,-0.4655,-0.4752,-0.4746,-0.474,-0.4606,-0.4585,-0.4568,0,0,0,0,0,0,-0.4013,-0.4035,-0.4025,-0.4146,-0.4175,-0.4226,-0.4329,-0.4356,-0.4392,-0.4407,-0.4521,-0.4543,-0.463,-0.4664,-0.4677,-0.465,-0.4742,-0.4749,-0.4744,-0.4739,-0.4599,-0.4582,-0.4568,0,0,0,0,0,-0.402,-0.4038,-0.421,-0.4148,-0.4173,-0.4299,-0.4331,-0.4355,-0.4384,-0.4509,-0.4533,-0.4457,-0.4626,-0.4645,-0.4672,-0.4641,-0.4734,-0.4738,-0.4746,-0.4742,-0.4738,-0.4591,0,0,0,0,0,0,-0.4025,-0.406,-0.4217,-0.4228,-0.4167,-0.4299,-0.4323,-0.4352,-0.4487,-0.451,-0.4451,-0.4461,-0.4624,-0.4638,-0.4652,-0.4633,-0.4727,-0.4731,-0.4734,-0.4743,-0.474,-0.4737,0,0,0,0,0,0,-0.4051,-0.4068,-0.4223,-0.4241,-0.4256,-0.4297,-0.4319,-0.4356,-0.4487,-0.4422,-0.4434,-0.4454,-0.4604,-0.4633,-0.4644,-0.4699,-0.4722,-0.4726,-0.4729,-0.4731,-0.474,-0.4738,0,0,0,0,0,0,-0.406,-0.4075,-0.4239,-0.425,-0.4263,-0.4399,-0.4333,-0.4454,-0.4502,-0.4414,-0.4509,-0.4512,-0.4597,-0.461,-0.4639,-0.4688,-0.4696,-0.4722,-0.4725,-0.4727,-0.4728,0,0,0,0,0,0,0,-0.4068,-0.3943,-0.4149,-0.4257,-0.4269,-0.4334,-0.4337,-0.434,-0.4503,-0.4505,-0.4508,-0.4511,-0.4697,-0.4701,-0.4706,-0.4679,0,0,-0.4721,-0.4723,0,0,0,0,0,0,0,0,-0.3939,-0.3942,-0.4149,-0.4152,-0.4154,-0.4334,-0.4337,-0.434,-0.4503,-0.4505,-0.4508,-0.451,-0.4698,-0.4702,-0.4706,0,0,0,0,0,0,0,0,0,0,0,0,0,0,0,-0.415,-0.4152,0,-0.4335,-0.4337,-0.4339,-0.4503,-0.4505,-0.4507,-0.4509,-0.4699,-0.4702,-0.4705,0,0,0,0,0,0,0,0,0,0,0,0,0,0,0,0,0,0,0,0,0,0,0,0,0,0,0,0,0,0,0,0,0,0,0,0,0,0,0,0,0,0,0,0,0,0,0,0,0,0,0,0,0,0,0,0,0,0,0,0,0,0,0,0,0,0,0,0,0]}]]]